Powrót do katalogu

STARLINK-5385

AktywnyŁącznośćVLEO
NORAD 54821·PAYLOAD·🇺🇸 United States

Wystrzelony Dec 28, 2022 z Cape Canaveral Space Force Station

Loading…

Następne Przeloty (najbliższe 24 godziny)

TLE

ŚwieżeSource: CelesTrak SupGP

Epoka: Sep 14, 2026, 21:22 UTC

1 54821C 22177B   26257.89076389 -.00040233  00000+0 -14572-2 0  2572
2 54821  42.9994 147.4916 0001222 240.7644 348.3587 15.27599988    17

Śledź STARLINK-5385 w czasie rzeczywistym z AllMySat

Download on the App Store